User: anonymous
Location: Castro Valley
(37.6940°N, 122.0850°W)
Time: 12:14:44
(UTC-07:00)
Language:

PANSAT - Orbit

View from above orbital plane
View from above orbital plane
View from above satellite
View from above satellite

Ground track
Ground track

The orbit data is extracted from the following two-line orbital elements,

1 25520U 98064B   14206.75177398  .00001212  00000-0  40547-4 0  5346
2 25520 028.4583 328.7146 0004239 171.1335 307.6943 15.23685072872521
Epoch (UTC): 25 July 2014 18:02:33
Eccentricity: 0.0004239
inclination: 28.4583°
perigee height: 492 km
apogee height: 497 km
right ascension of ascending node: 328.7146°
argument of perigee: 171.1335°
revolutions per day: 15.23685072
mean anomaly at epoch: 307.6943°
orbit number at epoch: 87252

The dashed part of the orbit path shows where the satellite is in the earth's shadow,  

DLR